Location: Roma
(41.9028°N, 12.4964°E)
Time: 07:41:29
(UTC+02:00)

ISS - Visible Passes

Search period start: 26 April 2018 00:00
Search period end: 06 May 2018 00:00
Orbit: 403 x 406 km, 51.6° (Epoch: 26 April)

Date Brightness Start Highest point End Pass type
(mag) Time Alt. Az. Time Alt. Az. Time Alt. Az.
01 May -1.7 05:18:50 10° S 05:21:22 21° SE 05:23:54 10° E visible
02 May -1.1 04:28:14 10° SSE 04:29:16 11° SE 04:30:18 10° ESE visible
03 May -3.2 05:10:10 13° SW 05:12:58 50° SE 05:16:09 10° ENE visible
04 May -2.3 04:19:55 23° SSE 04:20:44 26° SE 04:23:31 10° ENE visible
05 May -1.1 03:29:35 13° ESE 03:29:35 13° ESE 03:30:22 10° E visible
05 May -3.7 05:02:14 16° WSW 05:04:40 69° NNW 05:07:56 10° NE visible
